Location: Marcé
(47.5801°N, 0.3280°W)
Time: 22:43:48
(UTC+01:00)

Tiangong - Pass Details

Date: 30 October 2021
Orbit: 379 x 384 km, 41.5° (Epoch: 06 December)

Event Time Altitude Azimuth Distance (km) Brightness Sun altitude
Rises 19:15:57 0° 262° (W) 2,274 7.5 -5.5°
Reaches altitude 10° 19:18:45 10° 235° (SW) 1,416 5.3 -6.0°
Maximum altitude 19:20:29 14° 202° (SSW) 1,205 4.1 -6.3°
Drops below altitude 10° 19:22:13 10° 169° (S) 1,411 4.0 -6.5°
Sets 19:25:00 0° 142° (SE) 2,260 4.7 -7.0°
